DW7733 Weather Reports


time (UTC)temp
F
wind
direction
speed
knots
gust
knots
rain 1hr
in
rain 24hr
in
rain mn
in
humidity
%
barometer
mb
20260510141554 44 277 6.1 8.7 0.00 0.09 0.00 75 1016.4
20260510140052 44 283 6.1 8.7 0.00 0.09 0.00 73 1016.1
20260510134551 44 277 6.1 8.7 0.00 0.09 0.00 71 1015.8
20260510133047 44 280 5.2 7.8 0.00 0.09 0.00 71 1015.6
20260510131547 44 283 5.2 8.7 0.00 0.09 0.00 70 1015.5
20260510130045 43 277 6.1 8.7 0.00 0.09 0.00 71 1015.4
20260510124547 43 285 6.1 9.6 0.00 0.09 0.00 73 1015.2
20260510123042 43 309 7.0 9.6 0.00 0.09 0.00 72 1015.1
20260510121541 43 304 7.0 10.4 0.00 0.09 0.00 75 1015.0
20260510120038 43 298 7.8 10.4 0.00 0.09 0.00 77 1014.8
20260510114536 43 285 6.1 8.7 0.00 0.09 0.00 79 1014.7
20260510113040 43 283 7.0 10.4 0.00 0.09 0.00 83 1014.4
20260510111533 43 290 6.1 9.6 0.00 0.09 0.00 81 1014.2
20260510110044 43 270 6.1 8.7 0.00 0.09 0.00 82 1014.0
20260510104531 43 277 6.1 9.6 0.00 0.09 0.00 83 1013.8
20260510103025 43 308 7.8 11.3 0.00 0.09 0.00 80 1013.5
20260510101524 43 331 8.7 11.3 0.00 0.09 0.00 77 1013.4
20260510100020 43 287 6.1 7.8 0.00 0.09 0.00 81 1013.3
20260510094527 43 298 7.0 9.6 0.00 0.09 0.00 80 1012.8
20260510093013 43 304 6.1 9.6 0.00 0.09 0.00 81 1012.5
20260510091509 43 328 6.1 8.7 0.00 0.09 0.00 81 1012.1
20260510090008 43 318 6.1 7.8 0.00 0.09 0.00 79 1011.9
20260510084505 44 348 6.1 7.8 0.00 0.09 0.00 80 1011.7
20260510083002 44 340 7.8 9.6 0.00 0.09 0.00 79 1011.4
20260510081501 44 9 10.4 12.2 0.00 0.09 0.00 74 1011.2
20260510080105 45 19 8.7 10.4 0.00 0.09 0.00 80 1011.1
20260510074657 43 28 2.6 7.8 0.00 0.09 0.00 78 1010.8
20260510073039 43 139 0.0 2.6 0.00 0.09 0.00 77 1010.6
20260510071525 45 28 2.6 13.0 0.00 0.09 0.00 76 1010.5
20260510070028 46 37 10.4 13.9 0.00 0.09 0.00 73 1010.3
20260510064521 46 34 9.6 11.3 0.00 0.09 0.00 77 1010.2
20260510063021 46 22 11.3 15.6 0.00 0.09 0.00 77 1010.2
20260510061519 46 21 12.2 14.8 0.00 0.09 0.00 77 1010.1
20260510060032 46 19 14.8 18.2 0.00 0.09 0.00 75 1010.0
20260510054518 46 20 13.9 17.4 0.00 0.09 0.00 77 1010.0
20260510053012 46 21 15.6 18.2 0.00 0.09 0.00 75 1009.9
20260510051510 46 19 15.6 19.1 0.00 0.09 0.00 74 1009.7
20260510050007 46 26 15.6 18.2 0.00 0.09 0.00 78 1009.4
20260510044505 46 19 14.8 17.4 0.00 0.09 0.00 80 1009.1
20260510043002 46 25 16.5 19.1 0.00 0.09 0.00 78 1009.1
20260510041609 47 29 14.8 17.4 0.00 0.09 0.00 77 1008.9
20260510040104 47 28 13.9 18.2 0.00 0.09 0.00 76 1008.7
20260510034552 48 356 15.6 19.1 0.00 0.09 0.09 74 1008.5
20260510033056 50 29 11.3 12.2 0.00 0.09 0.09 69 1008.1
20260510031551 50 35 7.8 9.6 0.00 0.09 0.09 70 1007.5
20260510030048 50 39 7.8 8.7 0.00 0.09 0.09 73 1007.5
20260510024547 50 19 7.0 8.7 0.00 0.09 0.09 74 1007.4
20260510023046 51 12 6.1 7.8 0.00 0.09 0.09 77 1007.0
20260510021636 51 28 7.8 9.6 0.00 0.09 0.09 74 1006.5
20260510020044 51 39 5.2 7.0 0.00 0.09 0.09 78 1006.2
20260510014553 51 39 7.0 7.8 0.00 0.09 0.09 81 1005.9
20260510013056 50 39 6.1 7.8 0.00 0.09 0.09 84 1005.6
20260510011543 49 40 8.7 9.6 0.00 0.09 0.09 82 1005.1
20260510010052 49 32 8.7 12.2 0.00 0.09 0.09 81 1005.1
20260510004541 50 35 12.2 14.8 0.00 0.09 0.09 75 1004.8
20260510003040 52 13 7.0 9.6 0.00 0.09 0.09 71 1004.5
20260510001540 54 342 5.2 7.8 0.00 0.09 0.09 70 1004.1
20260510000039 54 233 0.0 0.0 0.00 0.09 0.09 70 1003.5
20260509234539 54 233 0.0 0.9 0.00 0.09 0.09 70 1003.2
20260509233038 54 232 0.0 0.0 0.00 0.09 0.09 71 1002.8
20260509231537 53 233 0.0 0.0 0.00 0.09 0.09 73 1002.6
20260509230041 53 236 0.0 1.7 0.00 0.09 0.09 77 1002.5
20260509224537 53 346 0.0 1.7 0.00 0.09 0.09 74 1002.2
20260509223038 54 233 3.5 4.3 0.00 0.09 0.09 73 1001.8
20260509221538 55 236 3.5 4.3 0.00 0.09 0.09 74 1001.6
20260509220034 54 253 4.3 6.1 0.00 0.09 0.09 76 1001.3
20260509214537 56 239 7.8 9.6 0.00 0.09 0.09 75 1000.9
20260509213035 57 248 7.0 11.3 0.00 0.09 0.09 75 1000.8
20260509211530 58 236 8.7 11.3 0.00 0.09 0.09 76 1001.1
20260509210035 59 228 7.8 9.6 0.00 0.09 0.09 80 1001.3
20260509204529 56 239 5.2 9.6 0.00 0.09 0.09 92 1000.9
20260509203028 55 111 5.2 10.4 0.01 0.09 0.09 86 1000.9
20260509201527 55 149 0.9 6.1 0.09 0.09 0.09 73 1001.0
20260509200026 53 232 3.5 8.7 0.09 0.09 0.09 75 1001.2
20260509194537 51 225 1.7 6.1 0.09 0.09 0.09 83 1001.3
20260509193025 51 231 17.4 40.8 0.08 0.08 0.08 91 1002.0
20260509191522 62 153 3.5 12.2 0.00 0.00 0.00 66 1000.2
20260509190025 64 235 6.1 19.1 0.00 0.00 0.00 60 1000.0
20260509184522 65 239 4.3 13.0 0.00 0.00 0.00 56 1000.2
20260509183019 66 250 3.5 15.6 0.00 0.00 0.00 53 1000.2
20260509181516 65 150 3.5 11.3 0.00 0.00 0.00 57 1000.2
20260509180013 64 229 7.0 9.6 0.00 0.00 0.00 61 1000.4
20260509174514 63 245 7.0 14.8 0.00 0.00 0.00 62 1000.7
20260509173012 63 139 3.5 11.3 0.00 0.00 0.00 64 1001.0
20260509171509 63 233 2.6 8.7 0.00 0.00 0.00 62 1001.2
20260509170011 63 264 2.6 9.6 0.00 0.00 0.00 64 1001.0
20260509164511 65 273 4.3 8.7 0.00 0.00 0.00 63 1000.8
20260509163003 63 103 0.9 7.8 0.00 0.00 0.00 69 1001.0
20260509161606 62 152 0.9 6.1 0.00 0.00 0.00 71 1001.7
20260509160101 61 219 1.7 7.8 0.00 0.00 0.00 75 1002.0
20260509154554 59 193 0.9 4.3 0.00 0.00 0.00 78 1002.2
20260509153058 59 143 0.0 2.6 0.00 0.00 0.00 80 1002.6
20260509151546 58 242 0.9 7.0 0.00 0.00 0.00 79 1003.8
20260509150045 57 225 0.9 7.8 0.00 0.00 0.00 79 1004.2
20260509144549 57 212 3.5 6.1 0.00 0.00 0.00 78 1004.0
20260509143043 58 193 2.6 7.8 0.00 0.00 0.00 78 1003.7